AUA423M LOWW-LEPA

Flight info

Callsign AUA423M
Flight time 1h 56m
Altitude 36000
Route OSPEN DCT ABRUK DCT SETAL DCT DETSA/N0441F350 DCT PIDAD DCT TALEP DCT RARQU DCT BALEN UT250 RIXOT
Aircraft A321/M-SDE3FGHIRWY/LB1

Departure

Time 2026-05-01 07:30
Airport Vienna International Airport (LOWW)

Arrival

Time 2026-05-01 09:26
Airport Palma de Mallorca Airport (LEPA)
Time Latitude Longitude Altitude Speed Heading
2026-05-01 07:23 48.11683 16.56598 609 ft 0 kts 116°
2026-05-01 07:25 48.11680 16.56606 622 ft 5 kts 116°
2026-05-01 07:25 48.11643 16.56721 620 ft 14 kts 116°
2026-05-01 07:25 48.11599 16.56858 623 ft 14 kts 116°
2026-05-01 07:25 48.11523 16.56909 614 ft 12 kts 198°
2026-05-01 07:26 48.11431 16.56846 617 ft 19 kts 205°
2026-05-01 07:26 48.11341 16.56871 618 ft 14 kts 124°
2026-05-01 07:26 48.11301 16.56992 622 ft 12 kts 116°
2026-05-01 07:26 48.11265 16.57104 617 ft 12 kts 116°
2026-05-01 07:27 48.11216 16.57253 613 ft 18 kts 116°
2026-05-01 07:27 48.11163 16.57415 625 ft 17 kts 116°
2026-05-01 07:27 48.11112 16.57571 616 ft 16 kts 116°
2026-05-01 07:27 48.11067 16.57650 612 ft 8 kts 170°
2026-05-01 07:28 48.11030 16.57637 609 ft 0 kts 203°
2026-05-01 07:28 48.11024 16.57633 620 ft 5 kts 205°
2026-05-01 07:29 48.10962 16.57588 617 ft 14 kts 206°
2026-05-01 07:29 48.10927 16.57495 620 ft 10 kts 286°
2026-05-01 07:29 48.10946 16.57435 622 ft 11 kts 296°
2026-05-01 07:29 48.11077 16.57037 620 ft 78 kts 296°
2026-05-01 07:30 48.11408 16.56020 614 ft 135 kts 296°
2026-05-01 07:30 48.11876 16.54580 641 ft 174 kts 296°
2026-05-01 07:30 48.12235 16.52910 1360 ft 168 kts 268°
2026-05-01 07:30 48.11705 16.51367 2042 ft 178 kts 223°
2026-05-01 07:31 48.10653 16.50168 2358 ft 201 kts 217°
2026-05-01 07:31 48.07138 16.45105 3385 ft 265 kts 229°
2026-05-01 07:32 48.04585 16.40943 4979 ft 277 kts 228°
2026-05-01 07:32 48.03261 16.38805 5791 ft 282 kts 227°
2026-05-01 07:33 48.00534 16.34438 7299 ft 293 kts 226°
2026-05-01 07:33 47.99128 16.32196 7978 ft 298 kts 227°
2026-05-01 07:33 47.96247 16.27613 9397 ft 307 kts 227°
2026-05-01 07:34 47.94756 16.25238 10090 ft 312 kts 227°
2026-05-01 07:34 47.91594 16.20204 10504 ft 354 kts 227°
2026-05-01 07:34 47.89860 16.17450 10629 ft 375 kts 226°
2026-05-01 07:35 47.88021 16.14540 10751 ft 394 kts 226°
2026-05-01 07:35 47.86100 16.11508 10867 ft 411 kts 226°
2026-05-01 07:35 47.84110 16.08366 11160 ft 421 kts 226°
2026-05-01 07:35 47.82092 16.05176 11597 ft 426 kts 226°
2026-05-01 07:36 47.80041 16.01942 12057 ft 430 kts 226°
2026-05-01 07:36 47.77966 15.98683 12496 ft 434 kts 226°
2026-05-01 07:36 47.75888 15.95420 12925 ft 438 kts 226°
2026-05-01 07:36 47.73784 15.92117 13314 ft 442 kts 226°
2026-05-01 07:37 47.69529 15.85443 14140 ft 447 kts 226°
2026-05-01 07:37 47.67377 15.82073 14478 ft 451 kts 226°
2026-05-01 07:37 47.65214 15.78686 14835 ft 454 kts 226°
2026-05-01 07:38 47.63032 15.75274 15202 ft 457 kts 226°
2026-05-01 07:38 47.60834 15.71848 15573 ft 459 kts 226°
2026-05-01 07:38 47.56402 15.64953 16336 ft 464 kts 226°
2026-05-01 07:39 47.54160 15.61474 16727 ft 467 kts 226°
2026-05-01 07:39 47.51892 15.57936 17111 ft 470 kts 227°
2026-05-01 07:39 47.48238 15.49805 17851 ft 476 kts 246°
2026-05-01 07:40 47.47063 15.45227 18217 ft 477 kts 255°
2026-05-01 07:40 47.46153 15.40487 18609 ft 479 kts 256°
2026-05-01 07:40 47.45246 15.35787 18934 ft 483 kts 256°
2026-05-01 07:40 47.44303 15.30952 19276 ft 485 kts 256°
2026-05-01 07:41 47.43363 15.26166 19593 ft 488 kts 256°
2026-05-01 07:41 47.42407 15.21317 19923 ft 491 kts 256°
2026-05-01 07:41 47.40484 15.11594 20548 ft 496 kts 256°
2026-05-01 07:42 47.39505 15.06672 20872 ft 499 kts 256°
2026-05-01 07:42 47.38528 15.01756 21193 ft 502 kts 256°
2026-05-01 07:42 47.37541 14.96793 21503 ft 505 kts 256°
2026-05-01 07:42 47.36547 14.91816 21835 ft 507 kts 256°
2026-05-01 07:43 47.35543 14.86802 22174 ft 510 kts 256°
2026-05-01 07:43 47.34587 14.82043 22480 ft 512 kts 256°
2026-05-01 07:43 47.32530 14.71790 23074 ft 517 kts 256°
2026-05-01 07:44 47.30473 14.61605 23608 ft 521 kts 256°
2026-05-01 07:44 47.28385 14.51331 24044 ft 524 kts 256°
2026-05-01 07:45 47.27335 14.46171 24235 ft 526 kts 256°
2026-05-01 07:45 47.26286 14.41018 24423 ft 527 kts 256°
2026-05-01 07:45 47.25229 14.35845 24601 ft 528 kts 256°
2026-05-01 07:45 47.24165 14.30678 24810 ft 527 kts 256°
2026-05-01 07:46 47.23096 14.25509 25050 ft 527 kts 256°
2026-05-01 07:46 47.22029 14.20362 25309 ft 526 kts 256°
2026-05-01 07:46 47.19895 14.10105 25779 ft 525 kts 256°
2026-05-01 07:47 47.18823 14.04957 26042 ft 524 kts 256°
2026-05-01 07:47 47.18115 14.01559 26205 ft 524 kts 256°
2026-05-01 07:47 47.17042 13.96431 26476 ft 523 kts 256°
2026-05-01 07:47 47.15970 13.91327 26756 ft 522 kts 256°
2026-05-01 07:48 47.13822 13.81154 27233 ft 521 kts 256°
2026-05-01 07:48 47.12751 13.76099 27499 ft 520 kts 256°
2026-05-01 07:48 47.11670 13.71010 27785 ft 519 kts 256°
2026-05-01 07:49 47.10595 13.65959 28089 ft 518 kts 256°
2026-05-01 07:49 47.08438 13.55880 28625 ft 516 kts 256°
2026-05-01 07:49 47.07361 13.50850 28917 ft 516 kts 256°
2026-05-01 07:50 47.06284 13.45830 29246 ft 515 kts 256°
2026-05-01 07:50 47.04118 13.35772 29775 ft 513 kts 256°
2026-05-01 07:50 47.03043 13.30795 30055 ft 512 kts 256°
2026-05-01 07:51 47.01964 13.25814 30359 ft 511 kts 256°
2026-05-01 07:51 47.00885 13.20851 30599 ft 510 kts 256°
2026-05-01 07:51 46.99812 13.15931 30782 ft 510 kts 256°
2026-05-01 07:52 46.97647 13.06029 31237 ft 508 kts 256°
2026-05-01 07:52 46.96569 13.01111 31524 ft 507 kts 256°
2026-05-01 07:52 46.95492 12.96197 31742 ft 507 kts 256°
2026-05-01 07:53 46.93332 12.86393 32169 ft 506 kts 256°
2026-05-01 07:53 46.92244 12.81480 32427 ft 506 kts 256°
2026-05-01 07:53 46.91143 12.76528 32661 ft 505 kts 256°
2026-05-01 07:53 46.90051 12.71638 32929 ft 504 kts 256°
2026-05-01 07:54 46.87878 12.61929 33336 ft 503 kts 256°
2026-05-01 07:55 46.84606 12.47367 34061 ft 501 kts 257°
2026-05-01 07:55 46.82427 12.37703 34496 ft 500 kts 256°
2026-05-01 07:56 46.77062 12.24564 35022 ft 511 kts 227°
2026-05-01 07:56 46.71691 12.17777 35351 ft 511 kts 220°
2026-05-01 07:57 46.68948 12.14472 35409 ft 511 kts 220°
2026-05-01 07:58 46.57945 12.01246 35392 ft 511 kts 220°
2026-05-01 07:59 46.46965 11.88117 35383 ft 511 kts 220°
2026-05-01 08:00 46.30486 11.68563 35381 ft 510 kts 220°
2026-05-01 08:01 46.19480 11.55574 35382 ft 510 kts 220°
2026-05-01 08:02 46.11217 11.45887 35376 ft 511 kts 220°
2026-05-01 08:03 46.02942 11.36214 35378 ft 510 kts 220°
2026-05-01 08:03 45.94670 11.26591 35396 ft 510 kts 220°
2026-05-01 08:04 45.83686 11.13869 35404 ft 509 kts 220°
2026-05-01 08:05 45.75419 11.04325 35405 ft 507 kts 220°
2026-05-01 08:06 45.67168 10.94847 35405 ft 507 kts 220°
2026-05-01 08:07 45.56171 10.82269 35407 ft 505 kts 220°
2026-05-01 08:08 45.47937 10.72902 35416 ft 505 kts 219°
2026-05-01 08:09 45.36944 10.60446 35409 ft 504 kts 219°
2026-05-01 08:09 45.31458 10.54246 35409 ft 503 kts 219°
2026-05-01 08:10 45.20493 10.41914 35412 ft 502 kts 219°
2026-05-01 08:11 45.09543 10.29672 35409 ft 501 kts 219°
2026-05-01 08:12 45.01348 10.20526 35413 ft 500 kts 219°
2026-05-01 08:13 44.93142 10.11416 35411 ft 499 kts 219°
2026-05-01 08:13 44.84965 10.02374 35413 ft 498 kts 219°
2026-05-01 08:14 44.79512 9.96358 35392 ft 497 kts 219°
2026-05-01 08:14 44.74077 9.90386 35388 ft 496 kts 219°
2026-05-01 08:15 44.65922 9.81448 35390 ft 495 kts 219°
2026-05-01 08:16 44.60488 9.75516 35377 ft 494 kts 219°
2026-05-01 08:16 44.55063 9.69597 35364 ft 493 kts 219°
2026-05-01 08:17 44.49653 9.63713 35360 ft 492 kts 219°
2026-05-01 08:17 44.44247 9.57853 35369 ft 491 kts 219°
2026-05-01 08:18 44.38849 9.52006 35362 ft 489 kts 219°
2026-05-01 08:19 44.28059 9.40367 35349 ft 487 kts 219°
2026-05-01 08:19 44.22695 9.34605 35343 ft 487 kts 219°
2026-05-01 08:20 44.18245 9.29830 35341 ft 486 kts 220°
2026-05-01 08:20 44.12887 9.24077 35341 ft 485 kts 220°
2026-05-01 08:21 44.07528 9.18354 35345 ft 485 kts 220°
2026-05-01 08:21 44.02181 9.12671 35346 ft 484 kts 220°
2026-05-01 08:22 43.96833 9.06991 35344 ft 483 kts 220°
2026-05-01 08:22 43.91502 9.01343 35345 ft 482 kts 220°
2026-05-01 08:23 43.86172 8.95704 35346 ft 481 kts 220°
2026-05-01 08:23 43.80860 8.90090 35349 ft 480 kts 220°
2026-05-01 08:24 43.75542 8.84482 35345 ft 479 kts 220°
2026-05-01 08:24 43.70232 8.78916 35350 ft 479 kts 220°
2026-05-01 08:25 43.64655 8.73919 35347 ft 482 kts 206°
2026-05-01 08:25 43.58857 8.69445 35339 ft 474 kts 223°
2026-05-01 08:26 43.53846 8.63538 35337 ft 474 kts 224°
2026-05-01 08:26 43.48798 8.57678 35332 ft 475 kts 223°
2026-05-01 08:27 43.43678 8.51943 35331 ft 474 kts 222°
2026-05-01 08:27 43.38548 8.46248 35334 ft 474 kts 222°
2026-05-01 08:28 43.33448 8.40575 35334 ft 473 kts 222°
2026-05-01 08:28 43.28344 8.34890 35339 ft 472 kts 223°
2026-05-01 08:29 43.23218 8.29175 35341 ft 471 kts 223°
2026-05-01 08:29 43.18178 8.23576 35339 ft 469 kts 222°
2026-05-01 08:30 43.13090 8.17951 35338 ft 468 kts 222°
2026-05-01 08:30 43.08024 8.12367 35331 ft 467 kts 223°
2026-05-01 08:31 43.02961 8.06790 35322 ft 467 kts 223°
2026-05-01 08:31 42.97901 8.01221 35315 ft 466 kts 223°
2026-05-01 08:32 42.92849 7.95674 35308 ft 466 kts 223°
2026-05-01 08:32 42.87804 7.90143 35304 ft 465 kts 223°
2026-05-01 08:33 42.82760 7.84634 35304 ft 465 kts 223°
2026-05-01 08:33 42.77710 7.79142 35306 ft 464 kts 223°
2026-05-01 08:34 42.72667 7.73653 35300 ft 463 kts 223°
2026-05-01 08:34 42.67630 7.68174 35296 ft 463 kts 223°
2026-05-01 08:35 42.62600 7.62722 35290 ft 462 kts 223°
2026-05-01 08:35 42.57572 7.57290 35290 ft 461 kts 223°
2026-05-01 08:36 42.52551 7.51876 35283 ft 461 kts 223°
2026-05-01 08:36 42.47535 7.46469 35284 ft 460 kts 223°
2026-05-01 08:37 42.42528 7.41093 35278 ft 459 kts 223°
2026-05-01 08:37 42.37521 7.35729 35278 ft 458 kts 223°
2026-05-01 08:38 42.32522 7.30388 35273 ft 458 kts 223°
2026-05-01 08:38 42.27518 7.25059 35278 ft 457 kts 223°
2026-05-01 08:39 42.22522 7.19736 35276 ft 456 kts 223°
2026-05-01 08:39 42.17550 7.14444 35274 ft 456 kts 223°
2026-05-01 08:40 42.10104 7.06547 35272 ft 455 kts 222°
2026-05-01 08:40 42.05090 7.01247 35271 ft 454 kts 222°
2026-05-01 08:41 42.00198 6.95955 35275 ft 452 kts 225°
2026-05-01 08:41 41.95551 6.90283 35274 ft 450 kts 227°
2026-05-01 08:42 41.91001 6.84504 35267 ft 450 kts 227°
2026-05-01 08:42 41.86422 6.78806 35272 ft 449 kts 226°
2026-05-01 08:43 41.81793 6.73166 35263 ft 449 kts 226°
2026-05-01 08:43 41.77155 6.67553 35264 ft 449 kts 226°
2026-05-01 08:44 41.72529 6.61946 35257 ft 448 kts 226°
2026-05-01 08:44 41.67912 6.56340 35253 ft 448 kts 226°
2026-05-01 08:45 41.63294 6.50745 35259 ft 448 kts 226°
2026-05-01 08:45 41.58668 6.45162 35250 ft 448 kts 225°
2026-05-01 08:46 41.54044 6.39587 35253 ft 448 kts 225°
2026-05-01 08:46 41.49411 6.34018 35248 ft 448 kts 225°
2026-05-01 08:47 41.44771 6.28451 35245 ft 448 kts 225°
2026-05-01 08:47 41.40136 6.22903 35242 ft 448 kts 225°
2026-05-01 08:48 41.35499 6.17354 35244 ft 448 kts 225°
2026-05-01 08:48 41.30857 6.11811 35240 ft 448 kts 225°
2026-05-01 08:49 41.26224 6.06293 35242 ft 447 kts 225°
2026-05-01 08:49 41.21584 6.00785 35240 ft 447 kts 225°
2026-05-01 08:50 41.16952 5.95286 35242 ft 446 kts 225°
2026-05-01 08:50 41.12333 5.89806 35235 ft 445 kts 225°
2026-05-01 08:51 41.07711 5.84349 35240 ft 444 kts 225°
2026-05-01 08:51 41.03095 5.78907 35241 ft 443 kts 225°
2026-05-01 08:52 40.98487 5.73495 35247 ft 442 kts 224°
2026-05-01 08:52 40.94114 5.67890 35245 ft 438 kts 234°
2026-05-01 08:53 40.90600 5.61355 35241 ft 436 kts 237°
2026-05-01 08:53 40.87093 5.54821 35234 ft 436 kts 236°
2026-05-01 08:54 40.83581 5.48299 35230 ft 435 kts 236°
2026-05-01 08:54 40.80039 5.41743 35227 ft 435 kts 236°
2026-05-01 08:55 40.76549 5.35275 35231 ft 436 kts 236°
2026-05-01 08:55 40.73039 5.28764 35226 ft 436 kts 236°
2026-05-01 08:56 40.69521 5.22254 35223 ft 436 kts 236°
2026-05-01 08:56 40.65990 5.15749 35222 ft 436 kts 236°
2026-05-01 08:57 40.64223 5.12496 35089 ft 437 kts 236°
2026-05-01 08:57 40.62455 5.09242 34843 ft 437 kts 236°
2026-05-01 08:57 40.60683 5.05992 34599 ft 437 kts 236°
2026-05-01 08:57 40.58903 5.02729 34254 ft 437 kts 236°
2026-05-01 08:58 40.57121 4.99465 33273 ft 441 kts 236°
2026-05-01 08:58 40.55940 4.97303 32676 ft 441 kts 236°
2026-05-01 08:58 40.54146 4.94023 31794 ft 442 kts 236°
2026-05-01 08:58 40.52349 4.90739 30918 ft 443 kts 236°
2026-05-01 08:59 40.50516 4.87392 29821 ft 448 kts 236°
2026-05-01 08:59 40.48714 4.84106 28810 ft 449 kts 236°
2026-05-01 08:59 40.46880 4.80767 27810 ft 450 kts 236°
2026-05-01 08:59 40.45033 4.77409 26609 ft 456 kts 236°
2026-05-01 09:00 40.43167 4.74022 25439 ft 461 kts 236°
2026-05-01 09:00 40.41282 4.70601 24278 ft 465 kts 236°
2026-05-01 09:00 40.39383 4.67151 23280 ft 465 kts 236°
2026-05-01 09:00 40.37499 4.63732 22673 ft 461 kts 236°
2026-05-01 09:01 40.35607 4.60304 22442 ft 463 kts 235°
2026-05-01 09:01 40.33719 4.56892 22112 ft 462 kts 235°
2026-05-01 09:01 40.31834 4.53495 21740 ft 460 kts 235°
2026-05-01 09:01 40.29957 4.50122 21372 ft 457 kts 235°
2026-05-01 09:02 40.28087 4.46758 21008 ft 455 kts 235°
2026-05-01 09:02 40.26234 4.43420 20643 ft 452 kts 235°
2026-05-01 09:02 40.24393 4.40097 20287 ft 450 kts 235°
2026-05-01 09:02 40.22563 4.36801 19918 ft 447 kts 235°
2026-05-01 09:03 40.20734 4.33522 19563 ft 445 kts 235°
2026-05-01 09:03 40.18914 4.30262 19210 ft 442 kts 235°
2026-05-01 09:03 40.17103 4.27021 18846 ft 440 kts 235°
2026-05-01 09:03 40.15302 4.23800 18491 ft 438 kts 235°
2026-05-01 09:04 40.13507 4.20588 18115 ft 435 kts 235°
2026-05-01 09:04 40.11725 4.17401 17762 ft 433 kts 235°
2026-05-01 09:04 40.09953 4.14237 17405 ft 431 kts 235°
2026-05-01 09:04 40.08186 4.11091 17063 ft 429 kts 234°
2026-05-01 09:05 40.06438 4.07990 16725 ft 427 kts 234°
2026-05-01 09:05 40.04665 4.04851 16374 ft 424 kts 234°
2026-05-01 09:05 40.02924 4.01760 16037 ft 422 kts 234°
2026-05-01 09:05 40.01188 3.98675 15694 ft 420 kts 234°
2026-05-01 09:06 39.99461 3.95612 15357 ft 418 kts 234°
2026-05-01 09:06 39.97745 3.92570 15018 ft 416 kts 234°
2026-05-01 09:06 39.96034 3.89541 14691 ft 414 kts 234°
2026-05-01 09:06 39.94324 3.86527 14351 ft 412 kts 234°
2026-05-01 09:07 39.92629 3.83536 14020 ft 410 kts 234°
2026-05-01 09:07 39.90942 3.80552 13668 ft 408 kts 234°
2026-05-01 09:07 39.89261 3.77580 13339 ft 406 kts 234°
2026-05-01 09:07 39.87592 3.74635 13013 ft 404 kts 234°
2026-05-01 09:08 39.85925 3.71708 12678 ft 401 kts 234°
2026-05-01 09:08 39.84265 3.68800 12370 ft 399 kts 233°
2026-05-01 09:08 39.82610 3.65905 12047 ft 397 kts 233°
2026-05-01 09:08 39.80966 3.63028 11727 ft 395 kts 233°
2026-05-01 09:09 39.79361 3.60214 11484 ft 377 kts 233°
2026-05-01 09:09 39.77840 3.57545 11365 ft 358 kts 233°
2026-05-01 09:09 39.76396 3.55009 11235 ft 340 kts 233°
2026-05-01 09:09 39.75017 3.52597 11110 ft 324 kts 233°
2026-05-01 09:10 39.73701 3.50306 10989 ft 309 kts 232°
2026-05-01 09:10 39.72446 3.48116 10862 ft 296 kts 232°
2026-05-01 09:10 39.71237 3.45999 10601 ft 288 kts 232°
2026-05-01 09:10 39.70058 3.43927 10556 ft 286 kts 234°
2026-05-01 09:11 39.69082 3.41672 10459 ft 286 kts 242°
2026-05-01 09:11 39.68198 3.39362 10335 ft 286 kts 242°
2026-05-01 09:11 39.67314 3.37055 10214 ft 285 kts 242°
2026-05-01 09:11 39.66430 3.34759 10009 ft 284 kts 242°
2026-05-01 09:12 39.65548 3.32470 9782 ft 284 kts 242°
2026-05-01 09:12 39.64665 3.30181 9555 ft 284 kts 242°
2026-05-01 09:12 39.63782 3.27889 9189 ft 282 kts 242°
2026-05-01 09:12 39.62902 3.25608 8981 ft 283 kts 242°
2026-05-01 09:13 39.62016 3.23314 8748 ft 284 kts 242°
2026-05-01 09:13 39.61133 3.21030 8519 ft 284 kts 242°
2026-05-01 09:13 39.60243 3.18730 8321 ft 284 kts 242°
2026-05-01 09:13 39.59367 3.16467 8103 ft 285 kts 242°
2026-05-01 09:14 39.58482 3.14183 7886 ft 285 kts 242°
2026-05-01 09:14 39.57578 3.11849 7668 ft 285 kts 241°
2026-05-01 09:14 39.56690 3.09556 7441 ft 286 kts 242°
2026-05-01 09:14 39.55850 3.07390 7238 ft 286 kts 242°
2026-05-01 09:15 39.54957 3.05094 7020 ft 286 kts 242°
2026-05-01 09:15 39.54074 3.02831 6804 ft 286 kts 242°
2026-05-01 09:15 39.53178 3.00532 6586 ft 286 kts 242°
2026-05-01 09:15 39.52282 2.98233 6351 ft 285 kts 242°
2026-05-01 09:16 39.51387 2.95936 6132 ft 285 kts 242°
2026-05-01 09:16 39.50496 2.93657 5913 ft 284 kts 242°
2026-05-01 09:16 39.49605 2.91376 5695 ft 283 kts 242°
2026-05-01 09:17 39.47846 2.86870 5275 ft 282 kts 242°
2026-05-01 09:17 39.46955 2.84582 5043 ft 282 kts 242°
2026-05-01 09:17 39.45186 2.80072 4603 ft 280 kts 242°
2026-05-01 09:18 39.44305 2.77831 4396 ft 278 kts 242°
2026-05-01 09:18 39.43267 2.73056 3981 ft 277 kts 264°
2026-05-01 09:19 39.42840 2.68171 3552 ft 274 kts 264°
2026-05-01 09:19 39.42617 2.65734 3355 ft 272 kts 263°
2026-05-01 09:19 39.42392 2.63331 3184 ft 257 kts 263°
2026-05-01 09:20 39.41984 2.58968 2729 ft 239 kts 263°
2026-05-01 09:20 39.41592 2.54708 2468 ft 238 kts 263°
2026-05-01 09:21 39.41504 2.50587 2308 ft 223 kts 296°
2026-05-01 09:21 39.42530 2.49176 2314 ft 216 kts 340°
2026-05-01 09:21 39.45040 2.50268 2325 ft 207 kts 63°
2026-05-01 09:22 39.46394 2.53584 2312 ft 209 kts 59°
2026-05-01 09:22 39.47930 2.56787 2312 ft 209 kts 59°
2026-05-01 09:23 39.48693 2.58390 2208 ft 209 kts 59°
2026-05-01 09:23 39.50153 2.61458 1728 ft 184 kts 60°
2026-05-01 09:24 39.51399 2.64077 1272 ft 158 kts 60°
2026-05-01 09:24 39.51957 2.65253 1069 ft 148 kts 61°
2026-05-01 09:24 39.52992 2.67436 708 ft 140 kts 60°
2026-05-01 09:25 39.53996 2.69564 343 ft 138 kts 59°
2026-05-01 09:25 39.54980 2.71619 49 ft 130 kts 58°
2026-05-01 09:26 39.55372 2.72458 38 ft 62 kts 58°
2026-05-01 09:26 39.55499 2.72892 38 ft 21 kts 88°
2026-05-01 09:26 39.55502 2.73073 38 ft 20 kts 89°
2026-05-01 09:27 39.55587 2.73356 38 ft 19 kts 58°
2026-05-01 09:27 39.55619 2.73493 38 ft 15 kts 122°
2026-05-01 09:27 39.55524 2.73577 38 ft 22 kts 149°
2026-05-01 09:28 39.55384 2.73686 38 ft 24 kts 149°
2026-05-01 09:28 39.55243 2.73798 38 ft 24 kts 149°
2026-05-01 09:28 39.55100 2.73911 38 ft 24 kts 148°
2026-05-01 09:28 39.54959 2.74022 38 ft 24 kts 149°
2026-05-01 09:29 39.54753 2.74050 38 ft 16 kts 238°
2026-05-01 09:29 39.54685 2.73906 38 ft 19 kts 239°
2026-05-01 09:30 39.54588 2.73668 38 ft 12 kts 279°
2026-05-01 09:30 39.54622 2.73582 38 ft 9 kts 290°
2026-05-01 09:30 39.54658 2.73475 38 ft 5 kts 261°
2026-05-01 09:31 39.54653 2.73441 38 ft 3 kts 259°
2026-05-01 09:31 39.54651 2.73431 38 ft 0 kts 259°
2026-05-01 09:31 39.54651 2.73430 38 ft 0 kts 259°